Location: Newark
(40.7360°N, 74.1730°W)
Time: 14:27:55
(UTC-04:00)

Amateur Radio Satellites - All Passes

Search period start: 27 June 2016 13:57
Search period end: 28 June 2016 13:57
Location: Newark, 40.7360°N, 74.1730°W

Satellite Date Start Highest point End Downlink Frequencies (MHz)
Time Altitude Azimuth
JAS-2 27 Jun 13:58:21 14:05:01 32° 265° (W) 14:11:18 435.910
YUBILEINY 27 Jun 14:00:23 14:08:57 61° 282° (WNW) 14:17:38 435.215
Cosmos 2504 27 Jun 14:05:17 14:12:57 51° 89° (E) 14:21:10 435.465 / 435.565
AISAT 27 Jun 14:05:54 14:08:21 15° 296° (WNW) 14:10:46 437.250
TISAT 1 27 Jun 14:05:58 14:10:10 69° 102° (ESE) 14:14:22 437.305
Oscar 19 27 Jun 14:06:05 14:11:01 46° 260° (W) 14:15:59 437.125/150
Gurwin Techsat 1B 27 Jun 14:11:31 14:16:50 85° 78° (ENE) 14:22:11 435.225
UKube-1 27 Jun 14:13:01 14:16:05 19° 294° (WNW) 14:19:09 .
SPROUT 27 Jun 14:16:58 14:20:21 23° 292° (WNW) 14:23:44 437.525
Cosmos 2491 27 Jun 14:17:24 14:23:22 21° 281° (W) 14:29:22 435.465 / 435.565
BEESAT 27 Jun 14:19:09 14:22:22 18° 93° (E) 14:25:34 436.000
ITUPSAT 1 27 Jun 14:19:18 14:22:29 17° 92° (E) 14:25:39 437.325
ISS 27 Jun 14:19:55 14:22:19 19° 18° (NNE) 14:24:43 145.825
ITAMSAT 1 27 Jun 14:25:31 14:30:24 43° 70° (ENE) 14:35:20 435.822/435.867
DX 1 27 Jun 14:32:10 14:33:08 11° 299° (WNW) 14:34:05 434.975-435.025
RS-15 27 Jun 14:33:24 14:44:03 40° 322° (NW) 14:55:17 29.354- 29.394
AIST 2 27 Jun 15:20:58 15:24:33 28° 246° (WSW) 15:28:07 435.215
SWISSCUBE 27 Jun 15:30:10 15:34:59 78° 284° (WNW) 15:39:45 437.505
KKS-1 27 Jun 15:31:30 15:32:18 10° 90° (E) 15:33:05 437.445
SO-50 27 Jun 15:31:39 15:35:29 23° 111° (ESE) 15:39:18 436.795
AO-7 27 Jun 15:43:15 15:51:36 89° 69° (ENE) 16:00:01 29.400- 29.500
TISAT 1 27 Jun 15:44:09 15:45:15 11° 298° (WNW) 15:46:20 437.305
HORYU 2 27 Jun 15:53:14 15:56:09 17° 64° (ENE) 15:59:04 437.375
BEESAT 27 Jun 15:55:47 16:00:23 48° 289° (WNW) 16:04:59 436.000
ISS 27 Jun 15:55:52 15:59:09 88° 35° (NE) 16:02:24 145.825
ITUPSAT 1 27 Jun 15:55:56 16:00:35 49° 288° (WNW) 16:05:10 437.325
Gurwin Techsat 1B 27 Jun 15:55:56 15:57:26 11° 272° (W) 15:58:56 435.225
Cosmos 2504 27 Jun 15:59:22 16:06:36 35° 290° (WNW) 16:14:20 435.465 / 435.565
YUBILEINY 27 Jun 16:05:18 16:07:52 11° 305° (NW) 16:10:27 435.215
ITAMSAT 1 27 Jun 16:05:56 16:10:02 23° 266° (W) 16:14:09 435.822/435.867
STARS 27 Jun 16:06:05 16:08:05 13° 91° (E) 16:10:05 437.465
MOZHAYETS 4 27 Jun 16:45:57 16:50:36 67° 101° (ESE) 16:55:12
RS-15 27 Jun 16:52:38 17:01:21 22° 356° (N) 17:10:17 29.354- 29.394
CUTE-I 27 Jun 16:58:56 17:01:50 15° 60° (ENE) 17:04:45 437.470
KKS-1 27 Jun 17:04:53 17:09:19 70° 286° (WNW) 17:13:43 437.445
SO-50 27 Jun 17:11:00 17:15:42 45° 308° (NW) 17:20:23 436.795
BRITE-PL 27 Jun 17:19:01 17:23:09 26° 69° (ENE) 17:27:03 437.365/2234.400
AIST 1 27 Jun 17:22:57 17:27:13 63° 95° (E) 17:31:29
HORYU 2 27 Jun 17:28:07 17:32:20 45° 260° (W) 17:36:37 437.375
NOAA 15 27 Jun 17:28:56 17:33:45 37° 69° (ENE) 17:38:35 137.62
AO-7 27 Jun 17:40:05 17:45:21 18° 269° (W) 17:50:39 29.400- 29.500
STARS 27 Jun 17:40:27 17:44:47 56° 287° (WNW) 17:49:05 437.465
LilacSat-2 27 Jun 17:43:12 17:46:16 24° 70° (ENE) 17:49:23 437.200
NOAA 18 27 Jun 17:46:04 17:51:12 44° 69° (ENE) 17:56:22 137.9125
GOMX 1 27 Jun 17:59:03 18:02:57 27° 70° (ENE) 18:06:39 467.674
Cubesat XI-IV 27 Jun 18:01:18 18:06:28 52° 71° (ENE) 18:11:40 437.490
GONETS M04 27 Jun 18:02:20 18:10:01 37° 86° (E) 18:17:42
CUBESAT XI-V 27 Jun 18:10:15 18:14:50 60° 101° (E) 18:19:22 437.345
MOZHAYETS 4 27 Jun 18:25:00 18:27:10 13° 298° (WNW) 18:29:22
HO-68 27 Jun 18:25:47 18:30:21 18° 55° (NE) 18:34:56 435.675
CUTE-I 27 Jun 18:35:52 18:41:12 77° 257° (WSW) 18:46:36 437.470
Cosmos 2499 27 Jun 18:45:02 18:52:45 46° 87° (E) 19:00:56 435.465 / 435.565
BRITE-PL 27 Jun 18:56:49 19:01:30 35° 263° (W) 19:05:53 437.365/2234.400
CUSAT 1 27 Jun 19:02:40 19:06:29 89° 83° (E) 19:09:28 437.405
STRAND 1 27 Jun 19:03:57 19:06:56 15° 91° (E) 19:09:54 437.568
AIST 1 27 Jun 19:04:01 19:05:15 11° 292° (WNW) 19:06:29
DOVE 4 27 Jun 19:04:40 19:08:58 60° 74° (ENE) 19:13:06 437.250
RS-15 27 Jun 19:08:40 19:19:19 32° 31° (NNE) 19:30:00 29.354- 29.394
NOAA 15 27 Jun 19:09:07 19:13:34 27° 264° (W) 19:18:03 137.62
DANDE 27 Jun 19:14:17 19:19:12 43° 73° (ENE) 19:22:54 436.750
LilacSat-2 27 Jun 19:17:34 19:20:31 22° 265° (W) 19:23:30 437.200
NOAA 18 27 Jun 19:27:38 19:32:00 24° 265° (W) 19:36:26 137.9125
GOMX 1 27 Jun 19:37:00 19:40:59 27° 264° (W) 19:44:47 467.674
Cubesat XI-IV 27 Jun 19:43:01 19:46:49 20° 267° (W) 19:50:40 437.490
CANX-2 27 Jun 19:44:43 19:48:49 46° 73° (ENE) 19:52:57 2200.000
CUBESAT XI-V 27 Jun 19:49:15 19:51:41 14° 297° (WNW) 19:54:08 437.345
M-CUBED/EXP-1 PRIME 27 Jun 19:51:06 19:52:51 14° 61° (ENE) 19:54:37 437.505
COMPASS 1 27 Jun 19:51:37 19:55:01 24° 69° (ENE) 19:58:27 437.405
GONETS M04 27 Jun 19:58:16 20:06:35 48° 285° (WNW) 20:14:55
CUTE 1.7 + AOD 2 27 Jun 20:04:47 20:09:01 69° 75° (ENE) 20:13:18 437.475
CINEMA 3 27 Jun 20:08:26 20:12:35 86° 76° (ENE) 20:16:46 145.822/145.860
HO-68 27 Jun 20:09:57 20:17:07 90° 246° (WSW) 20:24:21 435.675
SEEDS 27 Jun 20:10:51 20:15:01 57° 74° (ENE) 20:19:13 437.485
CUBEBUG 2 27 Jun 20:13:29 20:17:01 28° 69° (ENE) 20:20:39 437.445
Cosmos 2499 27 Jun 20:38:18 20:45:57 39° 288° (WNW) 20:54:04 435.465 / 435.565
STRAND 1 27 Jun 20:41:25 20:46:31 62° 287° (WNW) 20:51:35 437.568
ZACube-1 27 Jun 20:44:28 20:48:02 28° 69° (ENE) 20:51:41 437.345
AUBIESAT-1 27 Jun 20:45:24 20:48:38 57° 70° (ENE) 20:51:54 437.475
DOVE 4 27 Jun 20:45:49 20:47:00 11° 269° (W) 20:48:11 437.250
AAUSAT CUBESAT 2 27 Jun 20:53:03 20:57:14 84° 257° (WSW) 21:01:28 437.432
Oscar 11 27 Jun 20:55:55 20:59:59 41° 72° (ENE) 21:04:05 145.826/435.025
DANDE 27 Jun 20:58:45 21:01:09 14° 281° (W) 21:03:16 436.750
AO-85 27 Jun 21:02:03 21:06:16 23° 111° (ESE) 21:10:25 145.980
FUNcube-1 27 Jun 21:02:13 21:06:08 40° 72° (ENE) 21:10:09 145.935
UWE-3 27 Jun 21:02:26 21:06:33 68° 76° (ENE) 21:10:49 435.000/436.395/437.385
DELFI C3 27 Jun 21:14:15 21:17:42 28° 70° (ENE) 21:21:10 145.870
RS-15 27 Jun 21:21:27 21:33:54 84° 58° (ENE) 21:46:11 29.354- 29.394
CANX-2 27 Jun 21:22:29 21:24:54 15° 269° (W) 21:27:22 2200.000
M-CUBED/EXP-1 PRIME 27 Jun 21:24:19 21:27:12 29° 257° (WSW) 21:30:07 437.505
COMPASS 1 27 Jun 21:26:52 21:30:28 27° 264° (W) 21:34:06 437.405
PRISM 27 Jun 21:41:41 21:45:47 80° 284° (WNW) 21:49:50 437.425
SEEDS 27 Jun 21:49:29 21:51:04 12° 270° (W) 21:52:40 437.485
CUBEBUG 2 27 Jun 21:50:19 21:53:38 23° 266° (W) 21:57:03 437.445
HO-68 27 Jun 22:01:49 22:05:42 15° 271° (W) 22:09:38 435.675
HUMSAT D 27 Jun 22:05:52 22:09:53 51° 74° (ENE) 22:14:00 437.325/437.525
TIGRISAT 27 Jun 22:08:58 22:11:12 13° 91° (E) 22:13:26 435.000
UNISAT 6 27 Jun 22:13:14 22:16:04 16° 92° (E) 22:18:55 437.425
YUBILEINY 27 Jun 22:16:55 22:20:46 13° 57° (ENE) 22:24:36 435.215
ZACube-1 27 Jun 22:20:53 22:24:18 24° 266° (W) 22:27:47 437.345
Oscar 11 27 Jun 22:33:26 22:36:17 17° 268° (W) 22:39:10 145.826/435.025
FUNcube-1 27 Jun 22:39:56 22:42:35 16° 268° (W) 22:45:16 145.935
CUBEBUG 1 27 Jun 22:40:33 22:43:10 16° 65° (ENE) 22:45:48 437.445
AO-85 27 Jun 22:41:11 22:46:29 53° 306° (NW) 22:51:36 145.980
VELOX 1 27 Jun 22:45:48 22:48:40 17° 64° (ENE) 22:51:31 145.980
DELFI C3 27 Jun 22:49:25 22:52:32 22° 266° (W) 22:55:42 145.870
ANTELSAT 27 Jun 22:51:52 22:56:15 40° 98° (E) 23:00:39 437.575/2403.000
ESTCUBE 1 27 Jun 23:16:39 23:21:05 57° 74° (ENE) 23:25:33 437.505/2401.250
AISAT 27 Jun 23:24:56 23:29:07 45° 72° (ENE) 23:33:20 437.250
Cosmos 2491 27 Jun 23:27:07 23:32:17 17° 77° (ENE) 23:37:26 435.465 / 435.565
UKube-1 27 Jun 23:30:33 23:34:22 31° 69° (ENE) 23:38:11 .
SPROUT 27 Jun 23:34:25 23:37:45 23° 68° (ENE) 23:41:06 437.525
RS-15 27 Jun 23:35:30 23:44:57 27° 259° (W) 23:54:21 29.354- 29.394
50 SAT 27 Jun 23:42:59 23:46:41 77° 77° (ENE) 23:50:25 437.505
TIGRISAT 27 Jun 23:43:39 23:48:14 62° 286° (WNW) 23:52:51 435.000
HUMSAT D 27 Jun 23:43:56 23:45:50 13° 270° (W) 23:47:45 437.325/437.525
DX 1 27 Jun 23:48:09 23:52:27 62° 74° (ENE) 23:56:45 434.975-435.025
UNISAT 6 27 Jun 23:48:32 23:53:03 51° 287° (WNW) 23:57:35 437.425
Cosmos 2504 27 Jun 23:59:03 00:05:08 20° 62° (ENE) 00:11:05 435.465 / 435.565
BUGSAT 1 28 Jun 00:00:02 00:02:02 13° 92° (E) 00:04:00 437.445
SO-50 28 Jun 00:02:55 00:06:32 22° 44° (NE) 00:10:04 436.795
YUBILEINY 28 Jun 00:10:38 00:19:27 68° 79° (E) 00:28:14 435.215
NANOSAT C BR1 28 Jun 00:13:03 00:17:09 46° 99° (E) 00:21:14 145.865
CUBEBUG 1 28 Jun 00:14:51 00:19:04 48° 260° (W) 00:23:18 437.445
QB50P1 28 Jun 00:15:28 00:19:38 52° 100° (E) 00:23:48 145.935-145.965
POPSAT HIP 1 28 Jun 00:18:34 00:22:46 56° 100° (E) 00:26:58 437.405
VELOX 1 28 Jun 00:20:32 00:24:46 45° 261° (W) 00:29:01 145.980
AO-85 28 Jun 00:26:23 00:28:05 11° 326° (NW) 00:29:47 145.980
ANTELSAT 28 Jun 00:29:12 00:32:41 21° 294° (WNW) 00:36:12 437.575/2403.000
QB50P2 28 Jun 00:30:37 00:34:54 84° 103° (ESE) 00:39:10 145.880/145.840
POLYITAN 1 28 Jun 00:33:14 00:37:31 86° 100° (E) 00:41:49 437.675
DUCHIFAT 1 28 Jun 00:33:58 00:38:13 77° 103° (ESE) 00:42:28 145.980
ESTCUBE 1 28 Jun 00:56:00 00:58:14 13° 269° (W) 01:00:29 437.505/2401.250
TISAT 1 28 Jun 00:57:11 01:01:10 47° 73° (ENE) 01:05:11 437.305
SWISSCUBE 28 Jun 01:01:23 01:03:41 14° 61° (ENE) 01:06:00 437.505
AISAT 28 Jun 01:03:07 01:05:50 16° 268° (W) 01:08:32 437.250
UKube-1 28 Jun 01:07:02 01:10:25 22° 265° (W) 01:13:49 .
JAS-2 28 Jun 01:08:27 01:13:42 38° 97° (E) 01:18:33 435.910
SPROUT 28 Jun 01:09:49 01:13:32 30° 263° (W) 01:17:18 437.525
Cosmos 2491 28 Jun 01:19:02 01:27:49 90° 96° (E) 01:36:37 435.465 / 435.565
BEESAT 28 Jun 01:25:20 01:28:52 21° 65° (ENE) 01:32:25 436.000
ITUPSAT 1 28 Jun 01:25:49 01:29:21 21° 65° (ENE) 01:32:54 437.325
DX 1 28 Jun 01:27:36 01:29:01 11° 269° (W) 01:30:26 434.975-435.025
BUGSAT 1 28 Jun 01:33:42 01:37:39 48° 287° (WNW) 01:41:37 437.445
SO-50 28 Jun 01:42:49 01:47:19 51° 243° (WSW) 01:51:41 436.795
NANOSAT C BR1 28 Jun 01:49:57 01:52:30 16° 295° (WNW) 01:55:02 145.865
Cosmos 2504 28 Jun 01:50:52 01:59:50 90° 83° (E) 02:08:23 435.465 / 435.565
QB50P1 28 Jun 01:52:43 01:54:58 14° 296° (WNW) 01:57:13 145.935-145.965
POPSAT HIP 1 28 Jun 01:56:01 01:58:04 13° 297° (WNW) 02:00:09 437.405
PCSat 28 Jun 01:59:57 02:04:51 36° 110° (ESE) 02:09:47 145.827
O/OREOS (USA 219) 28 Jun 02:06:33 02:09:17 16° 100° (E) 02:12:01 437.305
YUBILEINY 28 Jun 02:08:40 02:15:26 26° 279° (W) 02:22:14 435.215
Oscar 19 28 Jun 02:17:34 02:22:41 63° 102° (ESE) 02:27:45 437.125/150
BEESAT 3 28 Jun 02:27:39 02:31:05 30° 115° (ESE) 02:34:33 437.485
Gurwin Techsat 1B 28 Jun 02:28:18 02:33:09 34° 97° (E) 02:37:57 435.225
KKS-1 28 Jun 02:30:00 02:30:49 10° 61° (ENE) 02:31:39 437.445
TISAT 1 28 Jun 02:34:59 02:37:05 14° 268° (W) 02:39:12 437.305
SWISSCUBE 28 Jun 02:36:06 02:40:52 71° 258° (WSW) 02:45:41 437.505
ITAMSAT 1 28 Jun 02:39:56 02:42:56 15° 91° (E) 02:45:53 435.822/435.867
JAS-2 28 Jun 02:53:56 02:58:35 26° 297° (WNW) 03:02:55 435.910
BEESAT 28 Jun 03:01:49 03:06:21 43° 261° (W) 03:10:55 436.000
ITUPSAT 1 28 Jun 03:02:18 03:06:51 43° 261° (W) 03:11:28 437.325
STARS 28 Jun 03:03:20 03:05:00 12° 62° (ENE) 03:06:41 437.465
BEESAT 2 28 Jun 03:03:39 03:07:22 41° 117° (ESE) 03:11:08 435.950
Cosmos 2491 28 Jun 03:20:06 03:25:54 19° 298° (WNW) 03:31:45 435.465 / 435.565
AIST 1 28 Jun 03:31:27 03:33:56 15° 71° (ENE) 03:36:24
PCSat 28 Jun 03:43:23 03:48:15 33° 308° (NW) 03:53:09 145.827
O/OREOS (USA 219) 28 Jun 03:43:56 03:48:16 47° 296° (WNW) 03:52:36 437.305
AO-7 28 Jun 03:45:51 03:53:02 31° 96° (E) 04:00:08 29.400- 29.500
Cosmos 2504 28 Jun 03:46:24 03:51:53 19° 283° (WNW) 03:57:17 435.465 / 435.565
MOZHAYETS 4 28 Jun 03:47:13 03:51:45 61° 74° (ENE) 03:56:20
Oscar 19 28 Jun 03:58:19 04:01:28 17° 298° (WNW) 04:04:36 437.125/150
KKS-1 28 Jun 04:02:19 04:06:44 80° 258° (WSW) 04:11:10 437.445
BEESAT 3 28 Jun 04:05:32 04:08:47 24° 312° (NW) 04:12:04 437.485
Gurwin Techsat 1B 28 Jun 04:08:24 04:12:59 30° 293° (WNW) 04:17:32 435.225
GONETS M04 28 Jun 04:13:18 04:18:45 18° 61° (ENE) 04:24:10
ITAMSAT 1 28 Jun 04:17:38 04:22:50 65° 287° (WNW) 04:27:59 435.822/435.867
STARS 28 Jun 04:36:28 04:40:47 67° 258° (WSW) 04:45:09 437.465
Cosmos 2499 28 Jun 04:38:01 04:43:18 17° 60° (ENE) 04:48:25 435.465 / 435.565
BEESAT 2 28 Jun 04:42:26 04:45:23 20° 314° (NW) 04:48:20 435.950
AIST 1 28 Jun 05:07:43 05:11:46 43° 267° (W) 05:15:47
CUBESAT XI-V 28 Jun 05:12:53 05:17:30 57° 74° (ENE) 05:22:06 437.345
AIST 2 28 Jun 05:17:23 05:21:26 61° 119° (ESE) 05:25:31 435.215
HORYU 2 28 Jun 05:19:13 05:23:17 33° 97° (E) 05:27:21 437.375
MOZHAYETS 4 28 Jun 05:27:09 05:29:18 13° 270° (W) 05:31:29
AO-85 28 Jun 05:34:14 05:37:25 18° 41° (NE) 05:40:25 145.980
AO-7 28 Jun 05:37:59 05:46:10 60° 294° (WNW) 05:54:19 29.400- 29.500
NOAA 15 28 Jun 05:45:54 05:48:24 13° 90° (E) 05:50:53 137.62
GONETS M04 28 Jun 06:08:10 06:16:56 85° 83° (E) 06:25:43
NOAA 18 28 Jun 06:09:09 06:12:59 19° 93° (E) 06:16:47 137.9125
STRAND 1 28 Jun 06:19:15 06:23:11 23° 64° (ENE) 06:27:09 437.568
Cubesat XI-IV 28 Jun 06:19:33 06:23:36 21° 93° (E) 06:27:36 437.490
CUSAT 1 28 Jun 06:21:51 06:26:35 18° 86° (E) 06:30:57 437.405
Cosmos 2499 28 Jun 06:29:07 06:38:00 80° 82° (E) 06:46:17 435.465 / 435.565
DANDE 28 Jun 06:40:05 06:43:36 13° 80° (E) 06:47:03 436.750
LilacSat-2 28 Jun 06:50:15 06:53:54 37° 98° (E) 06:57:31 437.200
CUBESAT XI-V 28 Jun 06:52:40 06:55:13 14° 269° (W) 06:57:46 437.345
CUTE-I 28 Jun 06:53:19 06:58:27 44° 99° (E) 07:03:33 437.470
HORYU 2 28 Jun 06:56:06 06:59:40 23° 293° (WNW) 07:03:12 437.375
AIST 2 28 Jun 06:57:43 07:00:18 16° 317° (NW) 07:02:54 435.215
BRITE-PL 28 Jun 07:01:19 07:05:28 75° 102° (ESE) 07:09:39 437.365/2234.400
DOVE 4 28 Jun 07:04:14 07:06:54 16° 93° (E) 07:09:39 437.250
AO-85 28 Jun 07:13:55 07:18:20 59° 243° (WSW) 07:22:23 145.980
NOAA 15 28 Jun 07:23:27 07:28:42 72° 286° (WNW) 07:33:55 137.62
AO-7 28 Jun 07:33:25 07:37:13 14° 315° (NW) 07:41:01 29.400- 29.500
GOMX 1 28 Jun 07:37:41 07:41:53 82° 101° (E) 07:46:16 467.674
HO-68 28 Jun 07:39:46 07:44:13 17° 90° (E) 07:48:38 435.675
PHONESAT 2.4 28 Jun 07:39:50 07:42:44 39° 160° (SSE) 07:45:37 2401.200-2431.200
NOAA 18 28 Jun 07:48:33 07:53:59 58° 289° (WNW) 07:59:25 137.9125
CUTE 1.7 + AOD 2 28 Jun 07:52:00 07:53:44 12° 90° (E) 07:55:28 437.475
STRAND 1 28 Jun 07:57:11 08:02:04 44° 261° (W) 08:06:59 437.568
Cubesat XI-IV 28 Jun 07:58:43 08:03:54 49° 289° (WNW) 08:09:03 437.490
CUSAT 1 28 Jun 08:00:14 08:08:09 86° 281° (W) 08:14:50 437.405
CINEMA 3 28 Jun 08:03:19 08:06:49 21° 94° (E) 08:10:24 145.822/145.860
GONETS M04 28 Jun 08:07:03 08:12:34 19° 282° (WNW) 08:18:07
DANDE 28 Jun 08:16:57 08:25:17 68° 95° (E) 08:33:04 436.750
Cosmos 2499 28 Jun 08:24:00 08:29:58 21° 282° (WNW) 08:35:45 435.465 / 435.565
LilacSat-2 28 Jun 08:25:32 08:27:53 16° 294° (WNW) 08:30:14 437.200
PRISM 28 Jun 08:30:22 08:34:30 69° 75° (ENE) 08:38:39 437.425
CUTE-I 28 Jun 08:33:56 08:38:13 25° 295° (WNW) 08:42:29 437.470
ISS 28 Jun 08:35:19 08:38:12 30° 135° (SE) 08:41:06 145.825
AAUSAT CUBESAT 2 28 Jun 08:36:56 08:39:25 15° 92° (E) 08:41:53 437.432
DOVE 4 28 Jun 08:40:41 08:44:48 45° 287° (WNW) 08:49:07 437.250
UWE-3 28 Jun 08:53:16 08:55:59 15° 91° (E) 08:58:43 435.000/436.395/437.385
M-CUBED/EXP-1 PRIME 28 Jun 09:03:28 09:05:32 14° 99° (E) 09:07:39 437.505
CANX-2 28 Jun 09:05:31 09:09:50 83° 282° (WNW) 09:14:06 2200.000
TIGRISAT 28 Jun 09:08:57 09:10:06 11° 61° (ENE) 09:11:16 435.000
COMPASS 1 28 Jun 09:09:18 09:13:21 45° 98° (E) 09:17:22 437.405
UNISAT 6 28 Jun 09:12:58 09:15:00 13° 62° (ENE) 09:17:02 437.425
PHONESAT 2.4 28 Jun 09:16:09 09:19:13 86° 185° (S) 09:22:18 2401.200-2431.200
HO-68 28 Jun 09:25:28 09:32:42 84° 287° (WNW) 09:39:55 435.675
CUTE 1.7 + AOD 2 28 Jun 09:25:43 09:29:55 56° 286° (WNW) 09:34:05 437.475
SEEDS 28 Jun 09:30:31 09:34:45 69° 284° (WNW) 09:38:56 437.485
CUBEBUG 2 28 Jun 09:39:44 09:44:21 70° 101° (ESE) 09:49:02 437.445
CINEMA 3 28 Jun 09:39:50 09:44:00 37° 289° (WNW) 09:48:21 145.822/145.860
CUSAT 1 28 Jun 09:46:14 09:50:45 17° 293° (WNW) 09:54:54 437.405
ANTELSAT 28 Jun 09:50:40 09:54:29 32° 70° (ENE) 09:58:23 437.575/2403.000
AUBIESAT-1 28 Jun 09:57:25 10:01:15 47° 105° (ESE) 10:05:19 437.475
DANDE 28 Jun 10:01:36 10:08:34 28° 291° (WNW) 10:15:07 436.750
ZACube-1 28 Jun 10:08:06 10:12:38 64° 101° (E) 10:17:11 437.345
AAUSAT CUBESAT 2 28 Jun 10:11:09 10:15:06 42° 287° (WNW) 10:19:00 437.432
ISS 28 Jun 10:11:36 10:14:36 33° 332° (NNW) 10:17:37 145.825
Oscar 11 28 Jun 10:19:01 10:23:24 89° 103° (ESE) 10:27:45 145.826/435.025
FUNcube-1 28 Jun 10:25:55 10:30:29 87° 287° (WNW) 10:35:04 145.935
DELFI C3 28 Jun 10:26:19 10:30:11 46° 99° (E) 10:34:00 145.870
UWE-3 28 Jun 10:28:15 10:32:42 52° 287° (WNW) 10:37:13 435.000/436.395/437.385
M-CUBED/EXP-1 PRIME 28 Jun 10:36:28 10:40:12 48° 291° (WNW) 10:44:13 437.505
TIGRISAT 28 Jun 10:41:53 10:46:09 72° 258° (WSW) 10:50:32 435.000
BEESAT 3 28 Jun 10:45:14 10:48:08 19° 46° (NE) 10:51:01 437.485
COMPASS 1 28 Jun 10:46:04 10:48:31 15° 295° (WNW) 10:50:58 437.405
UNISAT 6 28 Jun 10:46:56 10:51:10 59° 259° (W) 10:55:31 437.425
PCSat 28 Jun 10:47:51 10:52:36 30° 50° (NE) 10:57:18 145.827
PHONESAT 2.4 28 Jun 10:52:45 10:55:48 61° 193° (SSW) 10:58:51 2401.200-2431.200
NANOSAT C BR1 28 Jun 11:04:58 11:08:43 32° 70° (ENE) 11:12:28 145.865
QB50P1 28 Jun 11:07:37 11:11:28 37° 71° (ENE) 11:15:19 145.935-145.965
POPSAT HIP 1 28 Jun 11:10:44 11:14:38 39° 71° (ENE) 11:18:33 437.405
ESTCUBE 1 28 Jun 11:11:31 11:13:16 12° 90° (E) 11:15:00 437.505/2401.250
HO-68 28 Jun 11:15:05 11:19:22 17° 306° (NW) 11:23:40 435.675
CUBEBUG 2 28 Jun 11:18:21 11:20:25 13° 297° (WNW) 11:22:29 437.445
JAS-2 28 Jun 11:19:49 11:25:25 23° 62° (ENE) 11:30:39 435.910
YUBILEINY 28 Jun 11:20:12 11:24:09 14° 75° (ENE) 11:28:07 435.215
BEESAT 2 28 Jun 11:22:03 11:25:22 25° 48° (NE) 11:28:41 435.950
QB50P2 28 Jun 11:22:42 11:26:49 59° 74° (ENE) 11:30:58 145.880/145.840
HUMSAT D 28 Jun 11:24:47 11:29:06 80° 285° (WNW) 11:33:24 437.325/437.525
POLYITAN 1 28 Jun 11:25:19 11:29:26 60° 74° (ENE) 11:33:36 437.675
DUCHIFAT 1 28 Jun 11:25:22 11:29:24 52° 74° (ENE) 11:33:29 145.980
ANTELSAT 28 Jun 11:27:55 11:31:15 22° 266° (W) 11:34:39 437.575/2403.000
Cosmos 2491 28 Jun 11:29:59 11:38:15 45° 74° (ENE) 11:46:28 435.465 / 435.565
AUBIESAT-1 28 Jun 11:33:07 11:35:26 15° 298° (WNW) 11:37:50 437.475
DX 1 28 Jun 11:39:24 11:40:14 10° 90° (E) 11:41:04 434.975-435.025
RS-15 28 Jun 11:43:49 11:54:44 57° 112° (ESE) 12:06:15 29.354- 29.394
ZACube-1 28 Jun 11:46:09 11:48:23 14° 297° (WNW) 11:50:38 437.345
ISS 28 Jun 11:50:06 11:51:48 13° 352° (N) 11:53:31 145.825
Oscar 19 28 Jun 11:58:59 12:00:40 12° 58° (ENE) 12:02:21 437.125/150
DELFI C3 28 Jun 12:02:35 12:04:37 14° 295° (WNW) 12:06:40 145.870
CUBEBUG 1 28 Jun 12:03:47 12:07:35 30° 97° (E) 12:11:22 437.445
VELOX 1 28 Jun 12:10:52 12:14:50 32° 97° (E) 12:18:47 145.980
O/OREOS (USA 219) 28 Jun 12:15:02 12:19:00 30° 60° (ENE) 12:22:58 437.305
BEESAT 3 28 Jun 12:22:15 12:26:00 42° 243° (WSW) 12:29:43 437.485
BUGSAT 1 28 Jun 12:22:46 12:26:47 74° 259° (W) 12:30:48 437.445
PHONESAT 2.4 28 Jun 12:29:54 12:32:05 18° 208° (SSW) 12:34:16 2401.200-2431.200
PCSat 28 Jun 12:31:02 12:36:06 41° 248° (WSW) 12:41:08 145.827
Cosmos 2504 28 Jun 12:40:19 12:43:58 14° 74° (ENE) 12:47:42 435.465 / 435.565
NANOSAT C BR1 28 Jun 12:41:25 12:44:30 20° 266° (W) 12:47:36 145.865
QB50P1 28 Jun 12:44:31 12:47:22 18° 267° (W) 12:50:14 145.935-145.965
50 SAT 28 Jun 12:45:49 12:49:31 80° 286° (WNW) 12:53:11 437.505
ESTCUBE 1 28 Jun 12:46:01 12:50:28 62° 286° (WNW) 12:54:53 437.505/2401.250
POPSAT HIP 1 28 Jun 12:47:53 12:50:35 17° 267° (W) 12:53:17 437.405
AISAT 28 Jun 12:51:22 12:55:47 84° 284° (WNW) 13:00:10 437.250
UKube-1 28 Jun 12:53:11 12:57:27 59° 101° (E) 13:01:42 .
SPROUT 28 Jun 12:55:22 12:59:29 44° 99° (E) 13:03:35 437.525
BEESAT 2 28 Jun 12:59:41 13:03:13 30° 245° (WSW) 13:06:43 435.950
QB50P2 28 Jun 13:01:43 13:02:59 11° 270° (W) 13:04:17 145.880/145.840
JAS-2 28 Jun 13:02:09 13:09:52 74° 257° (WSW) 13:16:55 435.910
DUCHIFAT 1 28 Jun 13:03:39 13:05:25 12° 269° (W) 13:07:11 145.980
POLYITAN 1 28 Jun 13:04:33 13:05:38 11° 270° (W) 13:06:44 437.675
YUBILEINY 28 Jun 13:10:41 13:19:22 78° 94° (E) 13:28:08 435.215
DX 1 28 Jun 13:12:32 13:16:51 66° 285° (WNW) 13:21:08 434.975-435.025
Cosmos 2491 28 Jun 13:27:05 13:34:56 40° 274° (W) 13:42:47 435.465 / 435.565
ISS 28 Jun 13:27:20 13:29:18 15° 12° (NNE) 13:31:16 145.825
Oscar 19 28 Jun 13:34:03 13:39:12 88° 74° (ENE) 13:44:22 437.125/150
AIST 2 28 Jun 13:39:02 13:42:55 37° 52° (NE) 13:46:46 435.215
CUBEBUG 1 28 Jun 13:40:17 13:43:44 24° 292° (WNW) 13:47:11 437.445
VELOX 1 28 Jun 13:47:41 13:51:07 23° 293° (WNW) 13:54:33 145.980
